CZ-3C DEB, 39354

Orbit data source: Space-Track

CZ-3C DEB, 39354 is space debris in HEO originally from a launch on Sun, 31 Oct 2010 UTC launched from the Xichang Space Center, China (XSC). Debris objects in space refer to the collection of defunct objects orbiting the Earth. Examples of debris include non-operational satellites, rocket bodies, and fragments generated from explosions, collisions, or faulty payload assembly.

Loading next visibility...
Identifier
39354, 2010-057U
Orbit
HEO
Country
Flag of CNCN / PRC
Related business
Manufacturer
CALT
Mission
Spacecraft
Bus & Motor
Unknown
Mass
Unknown
Launch date (UTC)
2010-10-31 (15 years ago)
Launch vehicle
Unknown
Launch site
Xichang Space Center, China (XSC)
Object type
Payload
Rocket body
Debris
Shape & HBR
Unknown shape, 0.2 m
Radar Cross Section
Medium (>0.1 m² and <1 m²)

Expand to show TLE details & history
Last TLE update: 1 day ago

TLE from 1 day ago
0 CZ-3C DEB
1 39354U 10057U   26067.38815604 -.00000045  00000-0 -56842-3 0  9992
2 39354  20.0786 127.3049 7186397 102.8847 358.8041  2.22628531 96551
Epoch: 2026-03-08T09:18Z
TLE epoch observation values (Epoch: 2026-03-08T09:18:56.681Z)
Latitude
20.14836°
Longitude
-84.81101°
Altitude
636.327 km
Speed
9.879 km/s
True Right ascension
14h 44m 05s
True Declination
20° 02' 08"
Sunlit
Object was in full shadow at epoch
Visualization orbit readout
Latitude
Unknown
Longitude
Unknown
Altitude
Unknown
Speed
Unknown
Apparent Right ascension
Unknown
Apparent Declination
Unknown
Sunlit
N/A
Visualization observer readout
Local Sidereal Time
16:28:02
Azimuth
Unknown
Elevation
Unknown
Doppler factor
Unknown
Orbital elements
Apogee altitude
36,208.763 km
Perigee altitude
593.809 km
Semi-major axis
24,779.423 km
Eccentricity
0.71864
Inclination
20.0786°
RAAN
127.3049°
Arg. of periapsis
102.8847°
True anomaly
349.54383°
Mean anomaly
358.8041°
Eccentric anomaly
355.75946°
Mean motion
0.55642 °/min
Orbital period
646.99 mins
BSTAR
-0.00056842
Loading maneuver chart data...
Computing Atmospheric mass density...
Loading historical data...
Loading historical data...
Loading historical data...
Loading historical data...
Loading historical data...
Loading historical data...
Loading historical data...

Documentation

Showing up to 5 results
|